Temp
11 10 9 10 11 12 11 11 10 12 10 9 9 10 10 9 9 9 9 9 8 8 8 8 8 8 8 8 8 8 9 10 11 11 9 9 9 9 10 8 9 9 9
10 9 9 10 11 11 11 10 11 11 9 9 9 10 9 9 9 9 8 8 8 8 8 8 8 7 7 7 8 8 9 9 9 10 10 9 9 9 9 8 8 8 8
9 9 9 9 10 10 10 10 12 10 9 10 9 9 8 9 9 9 9 8 8 8 8 8 8 8 7 7 8 7 8 8 9 10 9 8 9 8 9 8 7 7 8
9 9 9 9 10 10 10 9 11 10 9 10 10 9 9 8 9 8 8 8 8 7 7 7 7 7 7 7 7 7 8 8 8 8 7 8 9 8 8 7 7 7 8
9 9 9 9 9 10 9 9 9 10 9 10 11 9 9 9 9 8 8 8 7 7 7 7 7 7 7 7 7 6 7 7 6 6 7 8 8 8 8 7 6 6 7
8 8 9 9 9 9 9 9 9 9 9 8 10 10 10 10 10 9 8 7 7 7 6 6 6 6 6 6 7 6 6 6 6 6 6 7 8 7 7 7 6 6 7
8 8 8 8 9 8 9 8 9 9 9 8 9 9 9 9 9 9 8 7 7 7 7 6 6 6 6 6 6 6 6 6 6 6 6 6 7 7 7 6 6 6 6
8 8 8 8 8 8 8 8 9 9 8 8 8 8 9 10 10 9 9 7 7 7 7 7 6 6 6 6 6 5 6 6 6 6 6 6 6 6 6 6 6 6 6
8 8 8 7 8 8 9 9 9 8 8 8 8 8 8 8 9 8 8 8 6 7 7 7 7 7 7 7 6 6 6 6 6 6 6 6 6 6 6 6 5 5 3
3 6 7 7 8 8 8 8 8 8 8 8 8 8 8 7 8 8 8 7 7 7 7 7 7 7 7 7 6 6 6 6 6 6 6 6 5 5 4 3 3 2 1
-0 4 5 6 7 8 8 8 8 8 8 8 8 7 7 7 8 8 7 7 7 7 6 6 6 7 7 7 7 6 6 6 5 3 3 2 1 1 1 0 -1 -1 -3
-1 3 3 6 4 6 8 8 8 8 8 8 7 7 7 7 7 8 7 7 7 6 6 6 6 6 6 6 6 4 4 3 2 1 -0 -1 -2 -3 -3 -4 -4 -4 -4
2 2 2 2 2 3 6 6 7 7 7 6 6 5 5 5 6 6 6 6 6 6 5 4 4 4 3 3 3 1 0 -0 -2 -2 -3 -3 -4 -4 -5 -5 -5 -5 -5
0 0 0 1 2 1 3 4 3 2 2 2 2 2 2 2 2 3 3 3 2 2 1 -0 -0 -0 -1 -1 -3 -4 -4 -4 -4 -4 -4 -5 -5 -5 -6 -6 -6 -7 -7
-4 -6 -5 -4 -2 -3 -2 -2 -1 -1 -0 0 0 -0 -0 -0 -1 -1 -1 -1 -2 -2 -2 -3 -4 -3 -5 -5 -6 -6 -6 -5 -5 -6 -6 -6 -7 -7 -7 -7 -8 -8 -9
-2 -4 -4 -4 -4 -4 -5 -5 -5 -4 -3 -3 -3 -2 -3 -3 -4 -4 -4 -4 -4 -5 -5 -6 -7 -7 -7 -7 -7 -7 -7 -7 -7 -7 -8 -8 -9 -8 -8 -9 -9 -10 -11
-4 -4 -4 -5 -6 -7 -7 -6 -6 -6 -5 -5 -5 -5 -5 -5 -5 -5 -5 -6 -6 -6 -5 -8 -8 -8 -9 -9 -10 -9 -9 -9 -9 -10 -9 -9 -9 -9 -10 -11 -11 -12 -12
-4 -5 -5 -6 -6 -7 -7 -7 -7 -7 -7 -7 -7 -6 -7 -7 -7 -7 -7 -6 -6 -7 -8 -10 -10 -11 -11 -11 -11 -11 -11 -11 -11 -11 -11 -11 -12 -12 -12 -13 -13 -13 -12
-6 -6 -7 -7 -7 -7 -8 -8 -8 -9 -8 -8 -8 -7 -7 -7 -7 -7 -7 -8 -10 -10 -11 -11 -12 -12 -12 -13 -13 -12 -12 -12 -12 -12 -12 -12 -13 -13 -13 -12 -12 -12 -12
-7 -7 -8 -8 -9 -9 -9 -9 -10 -10 -9 -9 -10 -10 -9 -8 -7 -7 -8 -10 -11 -12 -13 -13 -13 -14 -13 -12 -12 -11 -12 -12 -12 -13 -14 -15 -15 -14 -14 -14 -14 -14 -14
-8 -7 -8 -8 -9 -9 -9 -9 -9 -9 -8 -8 -8 -9 -9 -10 -12 -12 -13 -13 -14 -14 -14 -14 -14 -14 -14 -14 -14 -14 -14 -14 -15 -15 -15 -14 -14 -15 -14 -14 -15 -15 -14
-9 -9 -9 -9 -9 -9 -10 -10 -11 -11 -11 -11 -11 -11 -12 -14 -14 -15 -15 -15 -15 -15 -15 -14 -14 -15 -15 -15 -15 -14 -14 -14 -15 -14 -13 -13 -15 -14 -15 -15 -16 -16 -16
-10 -9 -10 -10 -10 -10 -11 -12 -12 -13 -13 -14 -14 -15 -15 -15 -15 -15 -15 -14 -12 -11 -12 -12 -12 -12 -12 -12 -13 -15 -15 -13 -13 -13 -14 -15 -16 -17 -16 -17 -17 -16 -17
-10 -10 -11 -11 -12 -12 -13 -12 -13 -14 -14 -15 -15 -16 -16 -15 -14 -13 -13 -12 -12 -12 -12 -12 -12 -12 -13 -13 -13 -13 -13 -13 -13 -14 -14 -14 -16 -16 -16 -17 -18 -18 -16
-12 -12 -12 -13 -13 -14 -14 -14 -15 -15 -15 -16 -16 -16 -16 -16 -14 -13 -13 -13 -13 -13 -13 -13 -13 -13 -14 -14 -14 -14 -14 -14 -14 -15 -15 -15 -16 -16 -16 -17 -17 -17 -18
-14 -14 -14 -14 -14 -14 -15 -15 -16 -16 -16 -17 -17 -17 -17 -16 -15 -14 -14 -14 -14 -14 -14 -14 -14 -14 -14 -14 -14 -14 -15 -15 -15 -16 -16 -16 -16 -17 -19 -20 -20 -20 -20
Height
1382 1383 1386 1389 1395 1403 1406 1407 1408 1410 1415 1419 1422 1426 1429 1433 1437 1441 1444 1449 1453 1457 1462 1465 1472 1477 1484 1491 1497 1503 1507 1510 1514 1520 1519 1522 1525 1527 1527 1533 1534 1534 1532
1376 1378 1380 1386 1392 1398 1400 1400 1401 1406 1412 1416 1420 1422 1425 1429 1432 1436 1440 1444 1448 1452 1457 1462 1467 1471 1479 1487 1493 1497 1500 1507 1510 1513 1518 1519 1521 1522 1526 1528 1531 1529 1528
1373 1374 1378 1382 1387 1392 1396 1396 1397 1404 1408 1413 1417 1419 1421 1424 1428 1432 1437 1441 1444 1448 1453 1457 1463 1467 1474 1481 1488 1491 1498 1500 1504 1507 1510 1514 1516 1517 1518 1521 1522 1522 1522
1369 1372 1375 1379 1384 1387 1392 1393 1395 1401 1406 1410 1414 1417 1418 1421 1425 1429 1433 1436 1440 1444 1449 1453 1457 1462 1469 1475 1482 1487 1490 1493 1497 1501 1506 1507 1509 1511 1512 1515 1515 1515 1515
1367 1369 1372 1376 1380 1385 1389 1391 1393 1399 1404 1409 1411 1416 1417 1420 1423 1426 1430 1433 1436 1440 1445 1449 1454 1458 1464 1470 1477 1482 1485 1488 1492 1496 1498 1499 1501 1503 1505 1508 1508 1509 1506
1362 1365 1368 1373 1376 1381 1386 1388 1391 1397 1402 1407 1410 1414 1417 1419 1422 1425 1428 1431 1434 1438 1441 1445 1450 1454 1459 1467 1472 1477 1481 1483 1485 1488 1491 1492 1495 1497 1498 1500 1501 1500 1499
1359 1362 1365 1369 1373 1378 1383 1386 1391 1395 1400 1406 1409 1413 1416 1419 1422 1425 1427 1430 1432 1436 1439 1443 1446 1450 1455 1461 1466 1470 1474 1476 1479 1482 1482 1485 1486 1489 1491 1492 1492 1491 1489
1357 1360 1363 1366 1370 1376 1380 1385 1390 1395 1399 1403 1406 1411 1414 1417 1421 1424 1426 1428 1430 1434 1437 1441 1443 1446 1451 1455 1460 1463 1466 1469 1471 1474 1476 1478 1479 1481 1482 1483 1482 1482 1479
1356 1357 1360 1365 1370 1372 1380 1385 1389 1393 1398 1402 1406 1409 1413 1415 1418 1422 1424 1427 1429 1431 1435 1437 1440 1443 1447 1451 1455 1457 1459 1461 1463 1466 1467 1469 1470 1472 1473 1472 1471 1471 1470
1357 1356 1357 1360 1363 1372 1378 1383 1387 1392 1396 1398 1402 1406 1409 1411 1415 1418 1421 1424 1427 1429 1431 1433 1436 1439 1442 1445 1447 1449 1451 1454 1455 1456 1457 1459 1460 1461 1463 1463 1463 1464 1465
1363 1352 1355 1357 1363 1369 1374 1380 1384 1388 1392 1395 1399 1403 1405 1407 1410 1414 1417 1419 1422 1424 1426 1429 1430 1434 1437 1439 1440 1442 1444 1446 1447 1449 1451 1452 1454 1455 1456 1457 1457 1459 1461
1369 1357 1360 1356 1366 1365 1370 1376 1381 1385 1386 1393 1396 1399 1401 1403 1406 1409 1412 1415 1417 1419 1421 1423 1425 1427 1431 1433 1435 1437 1440 1442 1444 1446 1448 1450 1453 1454 1455 1456 1458 1459 1461
1361 1362 1361 1365 1367 1366 1367 1374 1378 1382 1387 1391 1394 1396 1399 1401 1402 1405 1407 1409 1411 1413 1414 1416 1419 1422 1425 1428 1431 1434 1436 1438 1443 1445 1446 1449 1453 1456 1457 1458 1459 1460 1462
1372 1369 1373 1371 1370 1373 1373 1375 1381 1387 1390 1392 1395 1397 1400 1401 1402 1404 1405 1407 1410 1412 1415 1417 1419 1421 1426 1427 1431 1436 1438 1441 1444 1448 1450 1449 1452 1454 1457 1460 1460 1462 1466
1385 1390 1388 1384 1377 1381 1380 1384 1388 1392 1395 1396 1397 1400 1403 1404 1406 1408 1408 1409 1412 1414 1417 1419 1423 1424 1429 1432 1435 1440 1441 1443 1447 1451 1454 1452 1455 1457 1457 1459 1461 1464 1468
1393 1397 1392 1387 1384 1388 1391 1394 1397 1399 1400 1402 1404 1405 1406 1409 1410 1412 1414 1415 1417 1420 1422 1424 1428 1432 1434 1436 1440 1443 1443 1447 1451 1453 1454 1456 1457 1459 1461 1460 1462 1465 1467
1400 1403 1400 1397 1396 1399 1405 1404 1405 1409 1410 1410 1411 1412 1414 1417 1417 1419 1420 1422 1425 1428 1427 1430 1433 1436 1439 1442 1445 1446 1447 1450 1453 1454 1457 1457 1457 1460 1463 1464 1465 1466 1468
1409 1409 1407 1407 1407 1409 1411 1414 1417 1417 1418 1419 1421 1421 1422 1423 1425 1426 1429 1431 1431 1432 1435 1438 1439 1441 1444 1448 1450 1450 1452 1453 1454 1455 1456 1459 1461 1463 1464 1465 1466 1467 1468
1417 1418 1417 1416 1417 1417 1419 1424 1425 1426 1426 1427 1429 1430 1432 1433 1431 1432 1432 1436 1438 1440 1440 1441 1441 1444 1447 1450 1452 1452 1452 1454 1456 1457 1458 1460 1462 1464 1465 1466 1466 1467 1467
1424 1423 1423 1422 1424 1425 1428 1429 1429 1430 1431 1431 1432 1436 1437 1437 1436 1436 1437 1440 1443 1443 1446 1444 1445 1447 1450 1452 1454 1454 1456 1456 1457 1459 1461 1463 1464 1465 1465 1466 1467 1468 1468
1427 1427 1427 1427 1429 1430 1430 1430 1432 1433 1433 1434 1435 1437 1438 1441 1440 1440 1444 1446 1449 1448 1447 1448 1448 1450 1455 1456 1456 1456 1458 1458 1459 1461 1462 1463 1464 1465 1465 1466 1466 1466 1466
1432 1432 1430 1430 1432 1432 1432 1435 1437 1435 1436 1438 1442 1442 1443 1444 1444 1445 1446 1449 1449 1447 1447 1447 1450 1454 1456 1457 1456 1456 1459 1460 1461 1461 1462 1462 1464 1465 1465 1465 1465 1465 1466
1434 1434 1435 1435 1434 1436 1437 1439 1440 1443 1442 1444 1445 1446 1446 1446 1447 1448 1450 1450 1447 1446 1448 1450 1454 1454 1455 1456 1456 1458 1459 1460 1459 1460 1461 1462 1463 1464 1464 1464 1464 1464 1464
1440 1439 1441 1441 1440 1440 1442 1441 1441 1444 1443 1445 1446 1446 1447 1449 1449 1449 1449 1449 1449 1450 1449 1453 1456 1456 1456 1456 1457 1457 1458 1458 1459 1460 1460 1461 1461 1462 1462 1462 1463 1463 1462
1441 1442 1441 1441 1442 1443 1444 1444 1445 1446 1446 1449 1449 1450 1450 1450 1450 1450 1450 1450 1452 1452 1452 1455 1456 1457 1457 1457 1457 1457 1457 1458 1458 1458 1459 1460 1460 1460 1460 1460 1460 1460 1460
1445 1445 1444 1444 1445 1447 1448 1448 1448 1448 1450 1452 1451 1450 1450 1449 1449 1450 1451 1453 1453 1452 1454 1455 1456 1456 1457 1457 1457 1457 1456 1457 1457 1457 1457 1457 1457 1458 1458 1458 1458 1457 1458
Wind_Speed
31 32 31 40 36 28 26 24 19 17 18 16 19 24 26 25 23 23 30 35 40 45 50 51 50 44 45 37 30 30 27 24 22 19 10 14 17 17 12 11 13 13 21
29 30 31 37 35 29 27 23 19 17 17 15 17 17 23 24 23 23 30 36 42 45 46 49 49 46 47 42 37 31 35 28 22 21 19 16 18 18 21 28 25 20 22
26 30 27 30 32 31 24 22 20 21 18 15 17 17 20 22 20 22 25 27 37 45 46 40 41 43 45 40 37 28 26 31 33 32 34 27 28 27 30 25 25 31 31
24 24 26 31 28 29 24 21 22 21 19 17 15 13 15 15 18 21 22 27 31 35 42 46 44 42 44 44 40 38 36 35 33 31 31 32 31 30 25 27 27 29 32
21 24 30 34 28 23 22 21 21 22 20 17 17 15 11 11 12 15 15 17 23 29 34 40 40 41 40 42 43 40 34 32 31 29 30 31 31 29 31 29 27 29 35
24 27 32 29 29 23 23 22 21 23 20 18 17 17 15 13 9 9 11 12 14 21 28 31 34 38 45 42 42 45 43 35 32 32 34 34 35 31 28 30 28 30 31
23 26 25 28 28 24 22 21 20 20 20 20 18 18 16 12 9 11 10 9 12 14 16 22 30 33 34 35 37 44 36 35 38 39 39 41 41 40 38 38 38 39 39
20 19 20 22 25 25 21 19 19 18 18 18 17 17 15 14 11 10 9 11 11 13 13 17 21 25 25 29 35 40 41 38 37 38 39 42 43 43 43 44 38 39 38
22 25 24 24 23 20 18 18 17 17 17 15 14 15 15 16 15 13 12 13 13 14 12 18 22 24 24 26 34 39 40 42 41 42 44 45 46 46 46 45 41 35 29
13 20 22 22 22 24 23 22 19 16 17 20 19 18 17 16 15 16 16 17 17 22 20 26 26 24 26 26 32 37 40 43 44 43 43 44 42 39 37 32 29 26 26
14 18 18 20 21 21 21 22 21 20 19 17 18 20 19 19 19 19 19 20 20 23 27 28 22 26 29 27 28 34 41 40 37 31 26 21 18 17 16 14 12 12 12
20 20 17 18 14 16 16 16 17 18 14 17 18 18 18 18 20 21 21 21 22 24 26 28 31 35 36 31 30 23 24 23 22 18 14 9 6 4 5 5 6 6 7
26 21 20 18 15 16 14 13 13 12 16 17 15 14 11 10 12 15 18 19 23 24 24 26 24 21 18 17 15 14 13 13 12 10 10 10 9 9 9 9 8 7 6
25 25 21 20 19 17 16 14 13 13 13 13 12 11 9 8 7 6 5 5 6 7 11 9 6 6 6 12 15 15 14 14 13 13 14 15 14 12 10 8 7 8 7
24 22 26 29 29 27 27 24 20 17 13 14 15 14 12 13 13 12 12 13 14 15 15 16 18 20 21 22 22 20 18 16 15 14 12 12 11 9 10 10 9 8 7
20 21 25 28 30 29 28 29 27 24 22 21 20 17 21 20 19 18 19 21 21 22 23 24 24 24 22 21 19 17 15 13 11 11 11 11 11 10 9 9 8 7 6
20 18 19 23 26 27 26 27 29 27 26 26 25 25 24 23 22 22 23 23 21 19 23 22 21 19 18 15 14 13 13 13 12 12 10 10 9 9 8 7 7 6 5
16 17 19 21 23 23 23 24 25 27 29 29 26 26 27 27 25 23 19 16 19 19 19 18 17 15 14 13 12 13 12 12 11 11 10 9 8 7 7 6 6 6 4
15 16 17 18 19 20 22 22 22 22 24 24 22 21 19 18 18 16 14 16 16 16 15 15 15 14 13 12 12 11 11 10 10 9 8 8 8 6 5 4 3 3 4
14 16 16 17 17 17 17 17 16 17 18 20 20 14 12 11 12 12 13 14 14 15 14 15 14 13 12 11 11 11 10 9 8 7 7 6 6 5 4 3 3 3 1
11 12 13 14 14 14 15 15 14 14 14 14 14 13 12 11 13 14 14 14 13 14 14 13 13 12 10 10 9 9 8 7 7 6 5 4 4 3 2 1 0 1 3
9 10 11 13 13 13 14 13 12 13 13 13 13 13 12 13 14 13 13 12 12 12 12 12 11 10 9 8 7 7 6 6 4 3 3 3 2 1 0 1 1 3 3
10 10 11 11 12 12 12 12 12 12 13 12 11 11 11 12 12 11 10 10 10 10 10 9 8 7 6 5 6 6 4 3 2 2 2 2 1 1 2 3 5 3 5
8 9 9 10 10 9 10 11 12 12 12 11 11 10 10 10 9 9 9 8 8 8 8 6 5 5 4 4 2 1 0 1 2 3 4 4 4 5 5 6 5 8 8
9 8 9 10 10 10 10 10 11 10 11 10 9 9 9 8 8 7 7 7 6 6 5 4 3 2 1 1 1 2 2 3 4 5 6 7 8 7 8 8 9 9 8
9 10 10 10 10 9 9 9 9 9 9 8 8 7 7 7 6 6 5 4 4 3 2 2 1 1 2 2 2 3 4 5 6 6 7 8 8 8 8 8 9 9 9
Wind_Direction
232 231 221 207 195 199 198 196 196 203 196 200 219 220 225 231 230 237 229 222 216 216 215 217 218 222 215 209 215 214 220 217 227 219 196 215 216 219 228 254 247 244 242
230 221 220 211 196 197 199 197 196 186 184 188 200 223 224 226 231 237 233 227 220 218 221 223 221 222 219 215 218 217 223 214 225 219 232 235 241 245 254 259 261 258 266
227 221 220 210 194 196 199 193 186 178 186 188 194 213 223 220 224 228 236 231 234 228 223 221 226 223 214 211 221 208 214 210 224 238 256 248 256 261 259 261 255 261 276
225 217 213 197 192 189 201 187 184 178 183 197 198 213 211 208 218 230 234 239 238 236 228 228 229 229 218 220 230 228 234 243 238 235 243 252 263 261 263 258 269 268 266
225 215 210 198 190 185 190 181 184 181 185 193 189 183 185 190 199 204 213 230 239 235 232 228 225 230 228 229 234 235 237 235 231 236 251 258 260 256 264 266 271 280 274
222 213 208 207 194 186 185 182 182 188 181 191 188 189 189 198 208 215 214 218 230 237 238 238 240 235 235 237 241 239 244 243 233 244 254 257 262 263 262 272 277 275 267
216 211 205 197 188 180 184 183 181 185 193 186 186 193 192 199 206 221 225 220 227 231 230 236 238 235 234 232 235 236 244 250 252 253 256 257 258 262 268 272 276 279 270
194 194 190 186 187 178 179 185 183 180 186 195 199 207 205 204 213 220 227 227 238 241 244 242 244 244 240 235 233 237 244 252 255 252 256 258 261 265 268 272 268 267 256
173 174 173 162 163 170 175 179 180 183 187 194 203 208 211 218 214 216 226 234 238 249 256 259 254 256 249 242 239 243 249 252 257 258 256 257 258 261 265 262 259 252 244
113 150 160 162 159 169 175 178 177 176 181 190 193 202 216 223 226 228 230 235 231 236 248 249 248 250 255 258 253 248 246 251 255 255 254 256 260 263 264 264 263 260 249
62 107 126 141 155 172 177 177 179 182 190 198 207 212 219 228 235 234 232 236 238 234 238 246 241 238 239 239 242 246 244 244 241 242 248 255 263 270 272 268 256 238 236
70 76 93 102 119 141 164 174 179 190 194 212 212 215 217 229 235 239 239 238 240 240 242 243 246 248 250 249 255 250 245 244 240 240 241 235 227 208 173 161 161 169 173
56 61 69 82 88 99 110 132 152 174 189 192 192 197 199 213 233 242 245 246 244 240 234 238 243 254 262 258 242 235 226 213 207 197 178 159 153 149 150 152 152 143 139
59 62 65 76 82 87 101 110 128 139 149 154 154 144 144 135 127 130 154 178 184 212 194 172 173 153 145 142 139 141 143 142 146 152 151 150 153 150 142 131 121 113 114
62 67 73 79 82 81 85 90 98 100 114 124 123 123 122 114 102 103 112 118 119 122 127 122 118 116 122 122 125 128 130 134 140 142 142 138 136 131 125 124 121 116 113
64 64 71 76 79 81 86 90 91 95 101 105 107 110 106 102 104 108 110 112 114 117 120 117 117 120 119 119 122 123 126 130 131 128 121 116 116 117 119 119 117 112 107
73 72 76 84 87 87 86 90 95 99 104 102 101 101 101 106 111 116 117 117 120 128 117 114 115 116 113 114 121 123 124 125 123 120 125 126 123 123 117 116 116 109 103
78 84 87 92 95 97 96 98 99 99 95 92 93 100 106 109 109 107 106 114 111 108 107 106 104 103 101 105 105 110 115 118 119 120 123 120 114 111 108 109 120 115 96
85 87 95 102 102 102 102 101 97 95 91 89 93 98 101 110 116 117 116 103 96 95 95 100 104 104 108 113 118 121 123 122 121 122 123 124 118 117 124 122 111 127 96
88 95 94 96 96 97 99 98 99 102 111 117 109 94 100 117 115 103 98 98 96 94 94 94 97 99 102 101 103 103 108 111 116 114 115 110 101 102 109 121 135 71 8
87 95 98 100 98 98 99 98 99 99 98 105 111 117 117 109 98 93 91 87 91 92 93 93 93 97 100 104 102 109 113 112 113 112 115 122 123 122 123 134 42 330 299
95 99 99 103 104 101 97 97 96 98 94 95 98 104 100 94 92 94 95 103 99 103 103 109 108 113 114 106 104 110 115 113 116 137 150 148 129 199 180 287 316 322 325
85 85 89 91 91 93 94 93 95 97 99 101 100 99 93 91 96 98 102 103 106 106 108 110 116 119 120 123 124 126 137 158 170 175 180 201 219 271 276 299 293 295 288
97 94 99 104 98 92 93 95 104 103 97 95 96 98 97 100 103 106 105 105 101 104 109 109 116 119 126 123 125 161 208 271 250 239 254 257 267 273 275 284 291 293 300
82 84 86 83 82 84 88 91 93 92 91 95 97 100 102 104 103 104 104 104 107 108 103 104 108 105 111 360 334 331 294 284 276 268 268 268 275 280 278 281 279 279 291
74 79 82 84 87 94 96 96 95 96 98 103 107 109 107 103 101 102 103 106 102 97 94 96 80 18 306 303 312 304 300 290 289 285 285 286 287 285 282 282 284 289 286